BEL23U EGPH-EBBR

Flight info

Callsign BEL23U
Flight time 1h 24m
Altitude 37000
Route TLA N864 DCS DCT AKOMU DCT VAMEB UL612 HON L15 BIG Q70 KOK
Aircraft A320/M-DE3FGHIJ1LORVWY/H

Departure

Time 2026-04-25 08:23
Airport Edinburgh Airport (EGPH)

Arrival

Time 2026-04-25 09:47
Airport Brussels Airport (EBBR)
Time Latitude Longitude Altitude Speed Heading
2026-04-25 07:48 55.94921 -3.36430 116 ft 0 kts 149°
2026-04-25 08:13 55.94922 -3.36431 116 ft 1 kts 149°
2026-04-25 08:14 55.94962 -3.36472 113 ft 4 kts 167°
2026-04-25 08:14 55.94985 -3.36470 114 ft 4 kts 218°
2026-04-25 08:14 55.94996 -3.36448 112 ft 0 kts 238°
2026-04-25 08:17 55.94991 -3.36464 112 ft 4 kts 239°
2026-04-25 08:17 55.94967 -3.36536 114 ft 10 kts 239°
2026-04-25 08:17 55.94943 -3.36605 112 ft 0 kts 239°
2026-04-25 08:18 55.94939 -3.36618 116 ft 6 kts 239°
2026-04-25 08:18 55.94903 -3.36724 115 ft 9 kts 239°
2026-04-25 08:18 55.94906 -3.36814 116 ft 7 kts 311°
2026-04-25 08:18 55.94923 -3.36901 116 ft 11 kts 254°
2026-04-25 08:19 55.94871 -3.37056 115 ft 18 kts 239°
2026-04-25 08:19 55.94799 -3.37269 114 ft 21 kts 239°
2026-04-25 08:19 55.94726 -3.37482 114 ft 19 kts 239°
2026-04-25 08:19 55.94662 -3.37673 113 ft 17 kts 239°
2026-04-25 08:20 55.94598 -3.37860 114 ft 21 kts 239°
2026-04-25 08:20 55.94514 -3.38106 113 ft 24 kts 239°
2026-04-25 08:20 55.94424 -3.38373 115 ft 25 kts 239°
2026-04-25 08:20 55.94337 -3.38631 115 ft 21 kts 238°
2026-04-25 08:21 55.94285 -3.38780 115 ft 10 kts 238°
2026-04-25 08:21 55.94297 -3.38878 116 ft 9 kts 321°
2026-04-25 08:21 55.94360 -3.38949 113 ft 14 kts 328°
2026-04-25 08:21 55.94431 -3.38940 114 ft 11 kts 60°
2026-04-25 08:22 55.94439 -3.38915 114 ft 5 kts 59°
2026-04-25 08:22 55.94596 -3.38445 112 ft 81 kts 59°
2026-04-25 08:22 55.94994 -3.37272 112 ft 137 kts 59°
2026-04-25 08:22 55.95484 -3.35721 595 ft 144 kts 61°
2026-04-25 08:23 55.96027 -3.34223 1322 ft 144 kts 49°
2026-04-25 08:23 55.96778 -3.33014 1959 ft 148 kts 45°
2026-04-25 08:23 55.97601 -3.31704 2301 ft 169 kts 44°
2026-04-25 08:23 55.98532 -3.30209 2580 ft 191 kts 43°
2026-04-25 08:24 55.99565 -3.28549 2933 ft 205 kts 41°
2026-04-25 08:24 56.00638 -3.26821 3455 ft 210 kts 40°
2026-04-25 08:24 56.01733 -3.25053 3989 ft 214 kts 39°
2026-04-25 08:24 56.02841 -3.23264 4558 ft 215 kts 39°
2026-04-25 08:25 56.03953 -3.21471 5140 ft 216 kts 40°
2026-04-25 08:25 56.04913 -3.19250 5415 ft 242 kts 66°
2026-04-25 08:25 56.05153 -3.16131 5760 ft 269 kts 95°
2026-04-25 08:25 56.04899 -3.12706 5999 ft 282 kts 99°
2026-04-25 08:26 56.04237 -3.09392 6702 ft 286 kts 121°
2026-04-25 08:26 56.02951 -3.06677 7533 ft 288 kts 141°
2026-04-25 08:26 56.01355 -3.04467 8377 ft 291 kts 143°
2026-04-25 08:26 55.99730 -3.02264 9218 ft 296 kts 145°
2026-04-25 08:27 55.97959 -3.00360 10001 ft 300 kts 156°
2026-04-25 08:27 55.95944 -2.99387 10588 ft 308 kts 179°
2026-04-25 08:27 55.93752 -2.99828 10819 ft 328 kts 197°
2026-04-25 08:27 55.91562 -3.01241 11270 ft 340 kts 206°
2026-04-25 08:28 55.89420 -3.03113 11944 ft 345 kts 210°
2026-04-25 08:28 55.87288 -3.05137 12671 ft 349 kts 210°
2026-04-25 08:28 55.85126 -3.07165 13405 ft 354 kts 209°
2026-04-25 08:28 55.82911 -3.09139 14113 ft 358 kts 208°
2026-04-25 08:29 55.80650 -3.11043 14743 ft 362 kts 207°
2026-04-25 08:29 55.78348 -3.12901 15402 ft 365 kts 206°
2026-04-25 08:29 55.76021 -3.14734 16055 ft 367 kts 206°
2026-04-25 08:29 55.73672 -3.16568 16694 ft 370 kts 205°
2026-04-25 08:30 55.71310 -3.18417 17347 ft 373 kts 205°
2026-04-25 08:30 55.68930 -3.20285 17980 ft 376 kts 206°
2026-04-25 08:30 55.66563 -3.22148 18584 ft 378 kts 206°
2026-04-25 08:30 55.64149 -3.24056 19132 ft 381 kts 206°
2026-04-25 08:31 55.61684 -3.26008 19674 ft 384 kts 206°
2026-04-25 08:31 55.59272 -3.27917 20201 ft 387 kts 206°
2026-04-25 08:31 55.56804 -3.29870 20745 ft 390 kts 206°
2026-04-25 08:31 55.54286 -3.31859 21284 ft 393 kts 206°
2026-04-25 08:32 55.51794 -3.33719 21817 ft 397 kts 200°
2026-04-25 08:32 55.49109 -3.34911 22376 ft 400 kts 189°
2026-04-25 08:32 55.46323 -3.35244 22929 ft 403 kts 180°
2026-04-25 08:32 55.43515 -3.35191 23473 ft 405 kts 180°
2026-04-25 08:33 55.40688 -3.35140 23937 ft 407 kts 180°
2026-04-25 08:33 55.37843 -3.35094 24358 ft 410 kts 180°
2026-04-25 08:33 55.34985 -3.35050 24770 ft 412 kts 180°
2026-04-25 08:33 55.32112 -3.35006 25171 ft 414 kts 180°
2026-04-25 08:34 55.29224 -3.34958 25570 ft 416 kts 180°
2026-04-25 08:34 55.26319 -3.34911 25959 ft 418 kts 180°
2026-04-25 08:34 55.23403 -3.34870 26347 ft 420 kts 180°
2026-04-25 08:34 55.20474 -3.34830 26740 ft 421 kts 180°
2026-04-25 08:35 55.17545 -3.34787 27155 ft 422 kts 180°
2026-04-25 08:35 55.14602 -3.34740 27525 ft 424 kts 180°
2026-04-25 08:35 55.11646 -3.34693 27894 ft 426 kts 180°
2026-04-25 08:35 55.08680 -3.34648 28249 ft 427 kts 180°
2026-04-25 08:36 55.05700 -3.34603 28596 ft 429 kts 180°
2026-04-25 08:36 55.02710 -3.34557 28932 ft 431 kts 180°
2026-04-25 08:36 54.99706 -3.34508 29257 ft 433 kts 180°
2026-04-25 08:36 54.96688 -3.34458 29571 ft 434 kts 180°
2026-04-25 08:37 54.93662 -3.34407 29926 ft 435 kts 180°
2026-04-25 08:37 54.90639 -3.34356 30258 ft 435 kts 180°
2026-04-25 08:37 54.87606 -3.34308 30519 ft 436 kts 180°
2026-04-25 08:37 54.84568 -3.34260 30766 ft 437 kts 180°
2026-04-25 08:38 54.81517 -3.34213 30999 ft 439 kts 180°
2026-04-25 08:38 54.78465 -3.34165 31234 ft 440 kts 180°
2026-04-25 08:38 54.75402 -3.34089 31482 ft 440 kts 178°
2026-04-25 08:38 54.72370 -3.33426 31790 ft 440 kts 169°
2026-04-25 08:39 54.69432 -3.31955 32128 ft 440 kts 160°
2026-04-25 08:39 54.66624 -3.29875 32476 ft 438 kts 158°
2026-04-25 08:39 54.63839 -3.27766 32810 ft 436 kts 158°
2026-04-25 08:39 54.61061 -3.25672 33134 ft 435 kts 158°
2026-04-25 08:40 54.58289 -3.23595 33445 ft 434 kts 158°
2026-04-25 08:40 54.55522 -3.21530 33735 ft 433 kts 159°
2026-04-25 08:40 54.52751 -3.19470 33966 ft 434 kts 159°
2026-04-25 08:40 54.49975 -3.17410 34246 ft 434 kts 159°
2026-04-25 08:41 54.47203 -3.15355 34492 ft 434 kts 159°
2026-04-25 08:41 54.44430 -3.13298 34731 ft 433 kts 158°
2026-04-25 08:41 54.41666 -3.11244 34985 ft 433 kts 158°
2026-04-25 08:41 54.38901 -3.09190 35206 ft 433 kts 158°
2026-04-25 08:42 54.36139 -3.07143 35431 ft 433 kts 158°
2026-04-25 08:42 54.33373 -3.05098 35638 ft 433 kts 158°
2026-04-25 08:42 54.30607 -3.03060 35848 ft 433 kts 158°
2026-04-25 08:42 54.27839 -3.01021 36050 ft 433 kts 158°
2026-04-25 08:43 54.25072 -2.98981 36249 ft 433 kts 158°
2026-04-25 08:43 54.22302 -2.96942 36435 ft 433 kts 158°
2026-04-25 08:43 54.19535 -2.94911 36613 ft 433 kts 159°
2026-04-25 08:43 54.16763 -2.92883 36799 ft 433 kts 159°
2026-04-25 08:44 54.13991 -2.90862 36984 ft 433 kts 159°
2026-04-25 08:44 54.11221 -2.88850 37164 ft 433 kts 159°
2026-04-25 08:44 54.09385 -2.87519 37208 ft 433 kts 159°
2026-04-25 08:45 54.03845 -2.83492 37224 ft 432 kts 159°
2026-04-25 08:45 53.98313 -2.79472 37227 ft 432 kts 159°
2026-04-25 08:46 53.92779 -2.75465 37229 ft 433 kts 159°
2026-04-25 08:46 53.87241 -2.71468 37230 ft 433 kts 159°
2026-04-25 08:47 53.81698 -2.67484 37232 ft 433 kts 159°
2026-04-25 08:47 53.76151 -2.63510 37237 ft 433 kts 159°
2026-04-25 08:48 53.70607 -2.59540 37223 ft 433 kts 159°
2026-04-25 08:48 53.65056 -2.55579 37224 ft 433 kts 159°
2026-04-25 08:49 53.59504 -2.51621 37227 ft 433 kts 159°
2026-04-25 08:49 53.53945 -2.47681 37232 ft 433 kts 159°
2026-04-25 08:50 53.48386 -2.43757 37239 ft 434 kts 159°
2026-04-25 08:50 53.42816 -2.39826 37221 ft 434 kts 159°
2026-04-25 08:51 53.37250 -2.35899 37221 ft 434 kts 159°
2026-04-25 08:51 53.31672 -2.32000 37225 ft 434 kts 159°
2026-04-25 08:52 53.26098 -2.28105 37226 ft 434 kts 159°
2026-04-25 08:52 53.20521 -2.24212 37226 ft 434 kts 159°
2026-04-25 08:53 53.14942 -2.20334 37232 ft 434 kts 160°
2026-04-25 08:53 53.09363 -2.16465 37240 ft 435 kts 159°
2026-04-25 08:54 53.03778 -2.12590 37246 ft 435 kts 159°
2026-04-25 08:54 52.98188 -2.08734 37237 ft 435 kts 160°
2026-04-25 08:55 52.92598 -2.04895 37242 ft 435 kts 160°
2026-04-25 08:55 52.86996 -2.01063 37233 ft 436 kts 160°
2026-04-25 08:56 52.81393 -1.97246 37249 ft 436 kts 160°
2026-04-25 08:56 52.75789 -1.93436 37248 ft 436 kts 160°
2026-04-25 08:57 52.70184 -1.89614 37246 ft 436 kts 160°
2026-04-25 08:57 52.64524 -1.85761 37232 ft 436 kts 160°
2026-04-25 08:58 52.58956 -1.82005 37230 ft 436 kts 160°
2026-04-25 08:58 52.53304 -1.78206 37224 ft 436 kts 160°
2026-04-25 08:59 52.47688 -1.74438 37215 ft 436 kts 160°
2026-04-25 08:59 52.42109 -1.70699 37214 ft 436 kts 160°
2026-04-25 09:00 52.36557 -1.66507 37213 ft 439 kts 149°
2026-04-25 09:00 52.31952 -1.60010 37220 ft 443 kts 135°
2026-04-25 09:01 52.27671 -1.52663 37218 ft 444 kts 136°
2026-04-25 09:01 52.23387 -1.45394 37200 ft 444 kts 136°
2026-04-25 09:02 52.19126 -1.38174 37207 ft 445 kts 136°
2026-04-25 09:02 52.14834 -1.30899 37215 ft 445 kts 136°
2026-04-25 09:03 52.10508 -1.23584 37223 ft 446 kts 136°
2026-04-25 09:03 52.06229 -1.16383 37232 ft 446 kts 136°
2026-04-25 09:04 52.01884 -1.09104 37229 ft 446 kts 136°
2026-04-25 09:04 51.97554 -1.01882 37237 ft 446 kts 136°
2026-04-25 09:05 51.93229 -0.94662 37237 ft 446 kts 136°
2026-04-25 09:05 51.88897 -0.87458 37242 ft 447 kts 136°
2026-04-25 09:06 51.84560 -0.80258 37240 ft 447 kts 136°
2026-04-25 09:06 51.80215 -0.73075 37222 ft 447 kts 137°
2026-04-25 09:07 51.75865 -0.65908 37227 ft 447 kts 137°
2026-04-25 09:07 51.71542 -0.58803 37244 ft 447 kts 137°
2026-04-25 09:08 51.67186 -0.51675 37251 ft 446 kts 137°
2026-04-25 09:08 51.62826 -0.44551 37255 ft 446 kts 137°
2026-04-25 09:09 51.58463 -0.37451 37250 ft 446 kts 137°
2026-04-25 09:09 51.54093 -0.30373 37241 ft 446 kts 137°
2026-04-25 09:10 51.49735 -0.23319 37237 ft 446 kts 137°
2026-04-25 09:10 51.45362 -0.16232 37247 ft 446 kts 137°
2026-04-25 09:11 51.38801 -0.05677 37246 ft 446 kts 137°
2026-04-25 09:11 51.34905 0.02049 37230 ft 450 kts 121°
2026-04-25 09:12 51.33605 0.06617 37223 ft 453 kts 110°
2026-04-25 09:12 51.32812 0.11498 37226 ft 455 kts 100°
2026-04-25 09:12 51.32277 0.21613 37240 ft 457 kts 95°
2026-04-25 09:13 51.31794 0.31761 37245 ft 458 kts 96°
2026-04-25 09:13 51.31290 0.41920 37248 ft 459 kts 96°
2026-04-25 09:14 51.30785 0.52088 37244 ft 459 kts 95°
2026-04-25 09:14 51.30281 0.62271 37245 ft 460 kts 95°
2026-04-25 09:15 51.29892 0.72486 37245 ft 461 kts 94°
2026-04-25 09:15 51.29570 0.82717 37246 ft 461 kts 94°
2026-04-25 09:16 51.29218 0.92944 37247 ft 461 kts 94°
2026-04-25 09:16 51.28820 1.03173 37246 ft 462 kts 94°
2026-04-25 09:17 51.28205 1.18534 37244 ft 462 kts 94°
2026-04-25 09:18 51.27795 1.28773 37244 ft 462 kts 94°
2026-04-25 09:18 51.27378 1.39006 37240 ft 462 kts 94°
2026-04-25 09:19 51.26935 1.49298 37237 ft 462 kts 94°
2026-04-25 09:19 51.26485 1.59528 37234 ft 462 kts 94°
2026-04-25 09:20 51.26033 1.69772 37227 ft 463 kts 94°
2026-04-25 09:20 51.25578 1.79943 37227 ft 463 kts 94°
2026-04-25 09:21 51.25112 1.90194 37230 ft 463 kts 94°
2026-04-25 09:21 51.24632 2.00441 37224 ft 464 kts 94°
2026-04-25 09:22 51.24143 2.10710 37226 ft 464 kts 94°
2026-04-25 09:22 51.23652 2.20981 37226 ft 465 kts 94°
2026-04-25 09:23 51.23133 2.31262 37233 ft 465 kts 97°
2026-04-25 09:23 51.22538 2.36331 37016 ft 465 kts 106°
2026-04-25 09:23 51.21463 2.41186 36752 ft 464 kts 115°
2026-04-25 09:23 51.19911 2.45684 36160 ft 463 kts 126°
2026-04-25 09:24 51.17909 2.49691 35402 ft 463 kts 132°
2026-04-25 09:24 51.15801 2.53569 34785 ft 462 kts 133°
2026-04-25 09:24 51.13685 2.57437 34529 ft 465 kts 133°
2026-04-25 09:24 51.11625 2.61436 34284 ft 469 kts 126°
2026-04-25 09:25 51.10458 2.64415 34110 ft 471 kts 118°
2026-04-25 09:25 51.09153 2.69194 33836 ft 472 kts 108°
2026-04-25 09:25 51.08383 2.74187 33566 ft 471 kts 100°
2026-04-25 09:25 51.07782 2.79363 33293 ft 470 kts 100°
2026-04-25 09:26 51.07185 2.84394 32970 ft 469 kts 99°
2026-04-25 09:26 51.06573 2.89478 32327 ft 467 kts 100°
2026-04-25 09:26 51.05957 2.94520 31718 ft 463 kts 100°
2026-04-25 09:26 51.05339 2.99537 31119 ft 461 kts 100°
2026-04-25 09:27 51.04723 3.04516 30525 ft 458 kts 100°
2026-04-25 09:27 51.04111 3.09469 29880 ft 456 kts 99°
2026-04-25 09:27 51.03503 3.14396 29211 ft 453 kts 99°
2026-04-25 09:27 51.02897 3.19298 28556 ft 451 kts 99°
2026-04-25 09:28 51.02295 3.24175 27915 ft 449 kts 99°
2026-04-25 09:28 51.01694 3.29029 27290 ft 447 kts 99°
2026-04-25 09:28 51.01093 3.33857 26680 ft 444 kts 99°
2026-04-25 09:28 51.00492 3.38655 26082 ft 442 kts 99°
2026-04-25 09:29 50.99890 3.43432 25489 ft 440 kts 99°
2026-04-25 09:29 50.99288 3.48181 24917 ft 438 kts 99°
2026-04-25 09:29 50.98688 3.52911 24353 ft 436 kts 99°
2026-04-25 09:29 50.98087 3.57617 23799 ft 434 kts 99°
2026-04-25 09:30 50.97479 3.62368 23125 ft 432 kts 99°
2026-04-25 09:30 50.96889 3.66971 22499 ft 431 kts 99°
2026-04-25 09:30 50.96293 3.71615 21873 ft 429 kts 100°
2026-04-25 09:30 50.95691 3.76296 21243 ft 426 kts 100°
2026-04-25 09:31 50.95097 3.80891 20662 ft 423 kts 100°
2026-04-25 09:31 50.94511 3.85386 20078 ft 420 kts 101°
2026-04-25 09:31 50.93918 3.89905 19497 ft 417 kts 101°
2026-04-25 09:31 50.93329 3.94390 18995 ft 413 kts 101°
2026-04-25 09:32 50.92700 3.98795 18524 ft 408 kts 105°
2026-04-25 09:32 50.91698 4.02971 18000 ft 404 kts 112°
2026-04-25 09:32 50.90581 4.07094 17450 ft 399 kts 112°
2026-04-25 09:32 50.89504 4.11062 16935 ft 395 kts 112°
2026-04-25 09:33 50.88421 4.15041 16420 ft 392 kts 112°
2026-04-25 09:33 50.87346 4.18985 15917 ft 388 kts 112°
2026-04-25 09:33 50.86268 4.22944 15418 ft 385 kts 112°
2026-04-25 09:33 50.85214 4.26819 14930 ft 382 kts 112°
2026-04-25 09:34 50.84168 4.30660 14460 ft 379 kts 112°
2026-04-25 09:34 50.83129 4.34473 13969 ft 376 kts 112°
2026-04-25 09:34 50.82094 4.38257 13490 ft 372 kts 112°
2026-04-25 09:34 50.81074 4.41971 13124 ft 365 kts 112°
2026-04-25 09:35 50.80083 4.45571 12767 ft 359 kts 113°
2026-04-25 09:35 50.79081 4.49196 12391 ft 352 kts 113°
2026-04-25 09:35 50.78108 4.52711 12036 ft 346 kts 113°
2026-04-25 09:35 50.77153 4.56171 11682 ft 341 kts 113°
2026-04-25 09:36 50.76274 4.59611 11340 ft 335 kts 105°
2026-04-25 09:36 50.75849 4.63185 11041 ft 330 kts 92°
2026-04-25 09:36 50.75941 4.66761 10750 ft 322 kts 79°
2026-04-25 09:36 50.76506 4.70124 10439 ft 314 kts 66°
2026-04-25 09:37 50.77334 4.73276 10160 ft 308 kts 65°
2026-04-25 09:37 50.78144 4.76382 9854 ft 303 kts 65°
2026-04-25 09:37 50.78932 4.79434 9534 ft 295 kts 65°
2026-04-25 09:37 50.79686 4.82367 9202 ft 283 kts 65°
2026-04-25 09:38 50.80415 4.85192 8809 ft 279 kts 65°
2026-04-25 09:38 50.81144 4.88021 8436 ft 278 kts 65°
2026-04-25 09:38 50.81868 4.90840 8128 ft 273 kts 65°
2026-04-25 09:38 50.82573 4.93586 7905 ft 266 kts 65°
2026-04-25 09:39 50.83265 4.96270 7676 ft 262 kts 65°
2026-04-25 09:39 50.83947 4.98924 7453 ft 258 kts 66°
2026-04-25 09:39 50.84739 5.01405 7217 ft 249 kts 51°
2026-04-25 09:40 50.87503 5.04303 6704 ft 234 kts 11°
2026-04-25 09:40 50.89099 5.04468 6533 ft 234 kts 352°
2026-04-25 09:40 50.90661 5.03795 6378 ft 233 kts 334°
2026-04-25 09:40 50.91992 5.02350 6223 ft 233 kts 315°
2026-04-25 09:41 50.92966 5.00302 6094 ft 234 kts 303°
2026-04-25 09:41 50.93833 4.98118 5934 ft 234 kts 303°
2026-04-25 09:41 50.94701 4.95946 5752 ft 230 kts 303°
2026-04-25 09:41 50.95546 4.93834 5572 ft 224 kts 303°
2026-04-25 09:42 50.96377 4.91756 5396 ft 223 kts 303°
2026-04-25 09:42 50.97180 4.89614 5139 ft 224 kts 294°
2026-04-25 09:42 50.97537 4.87222 4761 ft 228 kts 272°
2026-04-25 09:42 50.97299 4.84716 4448 ft 228 kts 252°
2026-04-25 09:43 50.96762 4.82359 4148 ft 227 kts 251°
2026-04-25 09:43 50.96227 4.80011 3844 ft 226 kts 251°
2026-04-25 09:43 50.95695 4.77672 3539 ft 225 kts 251°
2026-04-25 09:43 50.95163 4.75338 3233 ft 224 kts 251°
2026-04-25 09:44 50.94643 4.73055 2932 ft 216 kts 251°
2026-04-25 09:44 50.94142 4.70865 2655 ft 207 kts 251°
2026-04-25 09:44 50.93667 4.68786 2399 ft 196 kts 251°
2026-04-25 09:44 50.93212 4.66792 2142 ft 189 kts 251°
2026-04-25 09:45 50.92780 4.64908 1888 ft 175 kts 251°
2026-04-25 09:45 50.92388 4.63196 1678 ft 158 kts 251°
2026-04-25 09:45 50.92022 4.61599 1459 ft 151 kts 251°
2026-04-25 09:45 50.91668 4.60052 1252 ft 148 kts 251°
2026-04-25 09:46 50.91315 4.58527 1047 ft 146 kts 250°
2026-04-25 09:46 50.90978 4.57012 847 ft 144 kts 252°
2026-04-25 09:46 50.90641 4.55540 642 ft 140 kts 249°
2026-04-25 09:46 50.90302 4.54096 431 ft 139 kts 250°
2026-04-25 09:47 50.89970 4.52669 258 ft 137 kts 251°
2026-04-25 09:47 50.89651 4.51279 175 ft 124 kts 251°
2026-04-25 09:47 50.89433 4.50316 176 ft 52 kts 249°
2026-04-25 09:47 50.89344 4.49943 177 ft 12 kts 250°
2026-04-25 09:48 50.89335 4.49904 177 ft 6 kts 250°
2026-04-25 09:48 50.89326 4.49804 177 ft 12 kts 275°
2026-04-25 09:48 50.89376 4.49651 172 ft 20 kts 308°
2026-04-25 09:48 50.89473 4.49452 165 ft 25 kts 308°
2026-04-25 09:49 50.89557 4.49279 159 ft 17 kts 307°
2026-04-25 09:49 50.89609 4.49169 154 ft 5 kts 307°
2026-04-25 09:49 50.89648 4.49144 152 ft 8 kts
2026-04-25 09:49 50.89713 4.49172 148 ft 12 kts 14°
2026-04-25 09:50 50.89821 4.49215 142 ft 20 kts 14°
2026-04-25 09:50 50.89979 4.49278 133 ft 27 kts 14°
2026-04-25 09:50 50.90161 4.49354 126 ft 28 kts 15°
2026-04-25 09:50 50.90334 4.49425 124 ft 15 kts 14°
2026-04-25 09:51 50.90412 4.49421 123 ft 10 kts 309°
2026-04-25 09:51 50.90403 4.49327 120 ft 8 kts 244°
2026-04-25 09:51 50.90380 4.49250 124 ft 8 kts 244°
2026-04-25 09:51 50.90350 4.49150 122 ft 11 kts 245°
2026-04-25 09:52 50.90319 4.49045 121 ft 10 kts 245°
2026-04-25 09:52 50.90291 4.48948 121 ft 10 kts 245°
2026-04-25 09:52 50.90261 4.48845 123 ft 10 kts 245°
2026-04-25 09:52 50.90269 4.48778 120 ft 5 kts 337°
2026-04-25 09:53 50.90304 4.48757 120 ft 5 kts 336°
2026-04-25 09:53 50.90325 4.48742 118 ft 0 kts 336°